FREGAT R/B, 40891

Orbit data source: Space-Track

FREGAT R/B, 40891 is space debris originally from a launch on Fri, 11 Sep 2015 UTC launched from the French Guiana (FRGUI). Debris objects in space refer to the collection of defunct objects orbiting the Earth. Examples of debris include non-operational satellites, rocket bodies, and fragments generated from explosions, collisions, or faulty payload assembly.

Loading next visibility...
FREGAT R/B details
Identifier
40891, 2015-045C
Orbit
Active
Last TLE update2 days ago
Origin
Flag of CISLavochkin (CIS)
ManufacturerLavochkin
MissionSpacecraft
Bus & MotorFREGAT, Unknown motor
Mass1,050 kg wet, 1,050 kg dry
Launch date (UTC)
2015-09-11 (9 years ago)
Launch vehicleUnknown
Launch site
French Guiana (FRGUI)
Object type
Payload
Rocket body
Debris
Shape & HBRIrr, 3.3 m
Radar Cross Section11.055 m²

Expand to show TLE details & history

TLE from 2 days ago
0 FREGAT R/B
1 40891U 15045C   24360.14229128  .00000036  00000-0  00000-0 0  9990
2 40891  55.0115 239.3433 0026039 229.2311 130.6274  1.67827826 56953
Epoch: 2024-12-25T03:24Z
Definitive object data (Epoch: 2024-12-25T03:24:53.966Z)
Latitude-0.00007°
Longitude93.98693°
Altitude23,583.621 km
Speed3.644 km/s
True Right ascension15h 57m 24s
True Declination0° 00' 00"
Sunlit
Object was in daylight at TLE epoch
Visualization TLE readout
Latitude25.33628°
Longitude113.25762°
Altitude23,607.592 km
Speed3.642 km/s
Apparent Right ascension16h 33m 04s
Apparent Declination17° 49' 51"
Sunlit
Object is in daylight
Visualization observer readout
Local Sidereal Time22:57:30
Azimuth287.578° WNW
Elevation6.822°
Doppler factor1
Orbital elements
Apogee altitude23,610.406 km
Perigee altitude23,454.638 km
Semi-major axis29,910.659 km
Eccentricity0.0026039
Inclination55.0115°
RAAN239.3433°
Arg. of periapsis229.2311°
True anomaly130.85338°
Mean anomaly130.6274°
Eccentric anomaly130.74044°
Mean motion0.41957 °/min
BSTARUnknown
Orbital period858.02 mins
Loading maneuver chart data...
Loading historical data...
Loading historical data...
Loading historical data...
Loading historical data...
Loading historical data...
Loading historical data...
Loading historical data...
Other satellites on launch #45 in the year 2015 (2015-09-11 UTC)

FREGAT R/B Visibility forecast

Observer location: undefined°, undefined

Span
Click to sort rows by Start time (UTC) header in descending order
Start Az.
Max El. time (UTC)
Max El. Az.
Max El.
End time (UTC)
End Az.
418 mins2024-12-26 23:49:10.421Z291.276° WNW2024-12-27 03:38:10.421Z261.53° W43.593°2024-12-27 06:47:10.421Z192.798° SSW
246 mins2024-12-27 12:33:10.421Z112.264° ESE2024-12-27 14:38:10.421Z69.171° E27.888°2024-12-27 16:39:10.421Z37.988° NE
|